sat.trackr.live / text

‹ back to catalog

STARLINK-4563

NORAD 53561 · 2022-101AL

PAYLOAD ACTIVE UNKNOWN

§ Identity

Operator
Country
US
Launch date
2022-08-19
Launch site
AFETR
Launch vehicle
Mass (kg)
RCS (m²)

Purposes: comms

External: N2YO · Heavens-Above · Gunter

§ Orbital elements

Epoch: 2026-09-19T17:07:46.718688Z

Period
93.85 min
Inclination
53.1586°
Eccentricity
0.0001235
Mean motion
15.34391663 rev/d
Perigee alt
461.9 km
Apogee alt
463.6 km
Semi-major
6,840.9 km
B*
3.9294e-5
RAAN
261.0449°
Arg perigee
88.2228°
Mean anomaly
271.8916°
Rev number
22,576

§ Raw data

STARLINK-45631 53561U 22101AL  26262.71373517  .00000951  00000+0  39294-4 0  99932 53561  53.1586 261.0449 0001235  88.2228 271.8916 15.34391663225764

JSON: /api/v1/satellites/53561 · /tle

For live sub-satellite position, see the globe view (requires WebGL).

§ Visibility from observer

Set your observer location to see the next 7 days of passes ≥ 10°. The values pass through the URL so the page stays shareable.

No JS? Fill the form by hand. The geolocation button needs JavaScript.